Location: Newark
(47.5989°N, 4.6950°E)
Time: 04:01:05
(UTC+00:00)

ISS - Pass Details

Date: 26 November 2019
Orbit: 411 x 421 km, 51.6° (Epoch: 06 December)

Event Time Altitude Azimuth Distance (km) Brightness Sun altitude
Rises 17:23:37 0° 241° (WSW) 2,348 1.7 -14.5°
Reaches altitude 10° 17:25:42 10° 240° (WSW) 1,490 0.3 -14.9°
Maximum altitude 17:29:02 78° 153° (SSE) 431 -3.8 -15.4°
Enters shadow 17:30:13 37° 73° (ENE) 667 -3.3 -15.6°
